YAHSAT 1A

Last updated on Nov. 13, 2019, 4:20 a.m. UTC

1 37393U 11016B   19315.94252906  .00000114  00000-0  00000-0 0  9996
2 37393   0.0197 288.9443 0002571 321.4727 192.1571  1.00269439 18248
UTC
Height (km)
Latitude
Longitude
Inclination
Orbital Period
UTC large
Height (km)
Speed (km/s)
/
Latitude / Longitude
Inclination (degrees)
Orbital Period (minutes)
Azimuth
Elevation
Range (km)
Doppler Factor
iOS Compass Heading
iOS Angle

Next 30 passes for location: Hong Kong

Rise time Rise Azimuth (degrees) Set time Set Azimuth (degrees) Duration Max altitude (degrees)

No matching passes for this satellites